Terug naar catalogus

YUNHAI 1

ActiefWetenschapSSO
NORAD 41857·PAYLOAD·🇨🇳 China

Gelanceerd Nov 11, 2016 vanaf Jiuquan Satellite Launch Center

Loading…

Volgende Passages (komende 24 uur)

TLE

VersSource: Space-Track

Epoch: Sep 14, 2026, 23:34 UTC

1 41857U 16068A   26257.98219398  .00000292  00000-0  12381-3 0  9998
2 41857  98.5864 268.1676 0003956 115.1525 245.0069 14.32514518514680

Volg YUNHAI 1 in realtime met AllMySat

Download on the App Store